Flag for Germany Weather past 2 weeks in Ganderkesee, Lower Saxony, Germany

Now
52 °F

Rain. Fog.


Feels Like: 50 °F
Forecast: 41 / 49 °F
Wind: 6 mph from Southwest

Location: Bremen Airport

Current Time: Apr 26, 2015 at 8:49:22 AM

Latest Report: Apr 26, 2015 at 8:20 AM


Visibility: 1 mi

Pressure: 29.71 "Hg

Humidity: 100%

Dew point: 52 °F

Location of GanderkeseeLocation

Historic Weather in Ganderkesee — Graph

°F

Ganderkesee temperature yesterday

Maximum temperature yesterday: 59 °F (at 5:50 PM)
Minimum temperature yesterday: 50 °F (at 12:20 AM)
Average temperature yesterday: 54 °F

Past Weeks' High & Low Weather Summary

 TemperatureHumidityPressure
High72 °F (Apr 15, 2:50 PM)100% (Apr 14, 1:20 AM)30.42 "Hg (Apr 14, 1:20 AM)
Low36 °F (Apr 14, 1:20 AM)31% (Apr 19, 5:20 PM)29.68 "Hg (Apr 25, 7:20 PM)
Average50 °F73%30.14 "Hg
* Reported Apr 11 7:20 AM — Apr 26 7:20 AM, Ganderkesee, Weather by CustomWeather, © 2015

Note: Actual official high and low records may vary slightly from our data, if they occured in-between our weather recording intervals... More about our weather records

Advertising

Ganderkesee weather history for previous 24 hours

 ConditionsComfort  
Time TempWeatherWind HumidityBarometerVisibility
7:20 AM
Sun, Apr 26
50 °FLight rain. Fog.8 mph100%29.71 "Hg2 mi
6:50 AM50 °FLight rain. Passing clouds.6 mph100%29.71 "Hg4 mi
6:20 AM50 °FClear.3 mph94%29.71 "Hg4 mi
5:50 AM50 °FClear.6 mph94%29.71 "Hg4 mi
5:20 AM48 °FFog.6 mph100%29.71 "Hg3 mi
4:50 AM48 °FFog.5 mph100%29.71 "Hg3 mi
4:20 AM46 °FFog.6 mph100%29.71 "Hg2 mi
3:50 AM46 °FPassing clouds.6 mph100%29.71 "Hg2 mi
3:20 AM46 °FCool.6 mph100%29.71 "Hg0 mi
2:50 AM46 °FPassing clouds.5 mph100%29.71 "Hg0 mi
2:20 AM46 °FPassing clouds.3 mph100%29.71 "Hg0 mi
1:50 AM48 °FCool.5 mph100%29.74 "Hg0 mi
1:20 AM48 °FPassing clouds.5 mph100%29.74 "Hg1 mi
12:50 AM50 °FCool.6 mph94%29.74 "Hg2 mi
12:20 AM50 °FPassing clouds.6 mph94%29.74 "HgN/A
11:20 PM
Sat, Apr 25
54 °FPartly cloudy.8 mph94%29.74 "Hg4 mi
10:50 PM54 °FLight rain. Partly cloudy.6 mph94%29.71 "Hg4 mi
10:20 PM54 °FPartly cloudy.5 mph94%29.71 "Hg5 mi
9:50 PM54 °FPassing clouds.6 mph94%29.71 "Hg5 mi
9:20 PM54 °FLight rain. Broken clouds.8 mph94%29.71 "Hg5 mi
8:50 PM54 °FLight rain. Partly sunny.8 mph94%29.71 "Hg5 mi
8:20 PM57 °FLight rain. Broken clouds.5 mph82%29.71 "HgN/A
7:50 PM57 °FBroken clouds.6 mph77%29.68 "HgN/A
7:20 PM57 °FBroken clouds.8 mph77%29.68 "HgN/A
6:50 PM59 °FBroken clouds.9 mph72%29.71 "HgN/A
6:20 PM59 °FLight rain. Broken clouds.9 mph72%29.71 "HgN/A
5:50 PM59 °FLight rain. Broken clouds.9 mph77%29.71 "HgN/A
5:20 PM57 °FLight rain. Broken clouds.10 mph82%29.71 "HgN/A
4:50 PM57 °FLight rain. Partly sunny.12 mph82%29.71 "HgN/A
4:20 PM57 °FLight rain. Partly sunny.13 mph77%29.71 "HgN/A
3:50 PM57 °FPartly sunny.12 mph82%29.71 "HgN/A
3:20 PM57 °FLight rain. Partly sunny.13 mph82%29.71 "HgN/A
2:50 PM55 °FLight rain. Partly sunny.14 mph82%29.71 "HgN/A
2:20 PM55 °FLight rain. Partly sunny.13 mph88%29.71 "HgN/A
1:50 PM54 °FLight rain. Partly sunny.9 mph88%29.74 "Hg4 mi
1:20 PM54 °FLight rain. Broken clouds.12 mph88%29.74 "Hg5 mi
12:50 PM54 °FLight rain. Partly sunny.12 mph82%29.74 "Hg5 mi
12:20 PM55 °FLight rain. Partly sunny.10 mph77%29.74 "Hg5 mi
11:50 AM55 °FLight rain. Scattered clouds.7 mph82%29.74 "Hg4 mi
11:20 AM54 °FLight rain. Broken clouds.3 mph88%29.74 "Hg5 mi
10:50 AM54 °FLight rain. Broken clouds.5 mph88%29.74 "Hg5 mi
10:20 AM54 °FLight rain. Broken clouds.8 mph88%29.74 "Hg5 mi
9:50 AM55 °FBroken clouds.8 mph77%29.74 "HgN/A
9:20 AM54 °FLight rain. Broken clouds.9 mph82%29.74 "HgN/A
8:50 AM54 °FBroken clouds.5 mph82%29.71 "HgN/A
8:20 AM52 °FBroken clouds.5 mph82%29.74 "HgN/A
Weather by CustomWeather, © 2015

See weather overviewHow to use our weather pages